#timestamp,LO_Frequency,Hit,StdDev 
1696687215.6,286047000.9,N
1696687235.4,286047000.6,N
1696687255.2,286047001.2,N
1696687275.1,286046996.9,N
1696687276.0,286046996.9,N
1696687295.8,286046995.0,N
1696687315.6,286046995.4,N
1696687335.5,286046994.9,N
1696687355.3,286046996.7,N
1696687375.2,286046997.5,N
1696687395.9,286046994.9,N
1696687415.7,286046996.7,N
1696687435.6,286046997.3,N
1696687455.4,286046996.8,N
1696687475.2,286046998.3,N
1696687495.1,286046999.8,N
1696687496.0,286046999.8,N
1696687515.8,286046999.8,N
1696687535.7,286046999.9,N
1696687555.5,286047001.2,N
1696687575.3,286046998.7,N
1696687595.2,286046999.1,N
1696687615.0,286046996.7,N
1696687615.9,286046996.7,N
1696687635.8,286046997.3,N
1696687655.6,286046997.1,N
1696687675.4,286046999.1,N
1696687695.3,286046996.8,N
1696687715.1,286046997.4,N
1696687716.0,286046997.4,N
1696687735.8,286046997.2,N
1696687755.7,286046997.8,N
1696687775.5,286046998.0,N
1696687795.3,286046997.4,N
1696687815.2,286046996.7,N
1696687835.0,286046997.3,N
1696687835.9,286046997.3,N
1696687855.8,286046996.7,N
1696687875.6,286046997.8,N
1696687895.4,286046997.2,N
1696687915.3,286046997.8,N
1696687935.1,286046997.4,N
1696687955.9,286046997.2,N
1696687975.7,286046999.2,N
1696687995.5,286046998.9,N
1696688015.4,286046998.8,N
1696688035.2,286046998.4,N
1696688055.0,286046998.6,N
1696688055.9,286046998.6,N
1696688075.8,286046999.0,N
1696688095.6,286046998.6,N
1696688115.5,286046999.0,N
1696688135.3,286047001.2,N
1696688155.1,286047000.6,N
1696688175.9,286047002.4,N
1696688195.7,286047002.3,N
1696688215.5,286047004.4,N
1696688235.4,286047004.3,N
1696688255.2,286047003.5,N
1696688275.0,286047003.8,N
1696688276.0,286047003.8,N
1696688295.8,286047001.7,N
1696688315.6,286047001.7,N
1696688335.5,286047002.3,N
1696688355.3,286047002.0,N
1696688375.1,286047001.4,N
1696688395.9,286047001.6,N
1696688415.7,286047002.8,N
1696688435.6,286047001.8,N
1696688455.4,286047001.7,N
1696688475.2,286047001.3,N
1696688495.1,286047002.1,N
1696688496.0,286047002.1,N
1696688515.8,286047001.7,N
1696688535.7,286047002.6,N
1696688555.5,286047001.8,N
1696688575.3,286047003.5,N
1696688595.2,286047005.3,Y
1696688615.0,286047004.4,P
1696688615.9,286047004.4,P
1696688635.7,286046999.7,N
1696688655.6,286047000.1,N
1696688675.4,286047000.4,N
1696688695.3,286047000.2,N
1696688715.1,286047002.7,N
1696688716.0,286047002.7,N
1696688735.8,286047002.1,N
1696688755.7,286047004.3,N
1696688775.5,286047001.7,N
1696688795.3,286047004.1,N
1696688815.2,286047001.3,N
1696688835.0,286047003.7,N
1696688835.9,286047003.7,N
1696688855.8,286047004.3,N
1696688875.6,286047004.3,N
1696688895.4,286047001.9,N
1696688915.3,286047004.0,N
1696688935.1,286047001.4,N
1696688955.8,286047003.8,N
1696688975.7,286047004.1,N
1696688995.5,286047001.9,N
1696689015.4,286047004.3,N
1696689035.2,286047004.3,N
1696689055.0,286047001.5,N
1696689055.9,286047001.5,N
1696689075.8,286047002.1,N
1696689095.6,286047004.0,N
1696689115.4,286047003.6,N
1696689135.3,286047004.2,N
1696689155.1,286047004.2,N
1696689175.9,286047002.3,N
1696689195.7,286046999.8,N
1696689215.5,286047000.1,N
1696689235.4,286047001.0,N
1696689255.2,286047001.1,N
1696689275.0,286047000.9,N
1696689275.9,286047000.9,N
1696689295.8,286047000.3,N
1696689315.6,286047001.9,N
1696689335.5,286047001.6,N
1696689355.3,286047002.5,N
1696689375.1,286047000.1,N
1696689395.9,286047002.2,N
1696689415.7,286047002.5,N
1696689435.5,286047004.4,Y
1696689455.4,286046999.7,P
1696689475.2,286047001.2,N
1696689495.1,286046998.1,N
1696689496.0,286046998.1,N
1696689515.8,286046998.5,N
1696689535.6,286046999.8,N
1696689555.5,286047002.7,N
1696689575.3,286047001.8,N
1696689595.2,286047002.7,N
1696689615.9,286047002.5,N
1696689635.7,286047001.5,N
1696689655.6,286047002.7,N
1696689675.4,286047000.3,N
1696689695.2,286047000.2,N
1696689715.1,286047000.3,N
1696689716.0,286047000.3,N
1696689735.8,286046999.7,N
1696689755.7,286047000.4,N
1696689775.5,286047000.2,N
1696689795.3,286047000.4,N
1696689815.2,286046999.7,N
1696689835.9,286047002.6,N
1696689855.7,286047001.6,N
1696689875.6,286047001.6,N
1696689895.4,286047001.5,N
1696689915.2,286047004.0,N
1696689935.1,286047003.9,N
1696689936.0,286047003.9,N
1696689955.8,286047001.6,N
1696689975.7,286047002.0,N
1696689995.5,286047001.7,N
1696690015.3,286047003.3,N
1696690035.2,286047003.1,N
1696690055.0,286047001.6,N
1696690055.9,286047001.6,N
1696690075.8,286047002.6,N
1696690095.6,286047001.5,N
1696690115.4,286047001.6,N
1696690135.3,286047001.8,N
1696690155.1,286047002.4,N
1696690175.8,286047001.6,N
1696690195.7,286047002.1,N
1696690215.5,286047001.5,N
1696690235.4,286047001.4,N
1696690255.2,286046999.7,N
1696690275.0,286047002.6,N
1696690275.9,286047002.6,N
1696690295.8,286047002.4,N
1696690315.6,286047000.2,N
1696690335.4,286047000.3,N
1696690355.3,286046999.8,N
1696690375.1,286047002.2,N
1696690395.9,286047002.3,N
1696690415.7,286047002.5,N
1696690435.5,286047001.7,N
1696690455.4,286047002.5,N
1696690475.2,286047002.5,N
1696690495.0,286047001.3,N
1696690496.0,286047001.3,N
1696690515.8,286047001.6,N
1696690535.6,286047003.7,Y
1696690555.5,286047002.3,P
1696690575.3,286047000.4,N
1696690595.1,286047000.6,N
1696690615.9,286047000.7,N
1696690635.7,286047000.9,N
1696690655.6,286046998.3,N
1696690675.4,286046998.5,N
1696690695.2,286046999.3,N
1696690715.1,286046999.1,N
1696690716.0,286046999.1,N
1696690735.8,286046999.1,N
1696690755.6,286046998.3,N
1696690775.5,286047001.0,N
1696690795.3,286047000.6,N
